Hourly Weather Bolshie Rogi

Today, 23 July, Friday

Time Temperature Precipitation Wind Pressure Humidity
00:00 +13°C° 0 mm 3 mps 749 mmHg 72%
01:00 +14°C° 0 mm 2 mps 749 mmHg 76%
02:00 +14°C° 0 mm 2 mps 749 mmHg 78%
03:00 +14°C° 0 mm 2 mps 749 mmHg 79%
04:00 +14°C° 0 mm 2 mps 749 mmHg 80%
05:00 +14°C° 0 mm 2 mps 749 mmHg 81%
06:00 +16°C° 0 mm 3 mps 749 mmHg 73%
07:00 +18°C° 0 mm 3 mps 749 mmHg 65%
08:00 +21°C° 0 mm 3 mps 749 mmHg 59%
09:00 +21°C° 0 mm 4 mps 749 mmHg 58%
10:00 +22°C° 0 mm 4 mps 749 mmHg 57%
11:00 +23°C° 0 mm 5 mps 749 mmHg 56%
12:00 +23°C° 0 mm 5 mps 748 mmHg 53%
13:00 +25°C° 0 mm 5 mps 748 mmHg 49%
14:00 +26°C° 0 mm 5 mps 748 mmHg 45%
15:00 +26°C° 0 mm 4 mps 748 mmHg 46%
16:00 +26°C° 0 mm 4 mps 748 mmHg 47%
17:00 +26°C° 0 mm 4 mps 748 mmHg 48%
18:00 +23°C° 0 mm 4 mps 748 mmHg 53%
19:00 +22°C° 0 mm 4 mps 748 mmHg 58%
20:00 +21°C° 0 mm 4 mps 748 mmHg 62%
21:00 +20°C° 0 mm 4 mps 748 mmHg 66%
22:00 +19°C° 0 mm 3 mps 748 mmHg 70%
23:00 +18°C° 0 mm 3 mps 748 mmHg 74%

Tomorrow, 24 July, Saturday

Time Temperature Precipitation Wind Pressure Humidity
00:00 +18°C° 0 mm 3 mps 748 mmHg 74%
01:00 +18°C° 0 mm 3 mps 748 mmHg 74%
02:00 +18°C° 0 mm 2 mps 748 mmHg 74%
03:00 +18°C° 0 mm 2 mps 749 mmHg 75%
04:00 +18°C° 0 mm 2 mps 749 mmHg 76%
05:00 +18°C° 0 mm 2 mps 749 mmHg 78%
06:00 +19°C° 0 mm 2 mps 749 mmHg 77%
07:00 +19°C° 0 mm 3 mps 749 mmHg 77%
08:00 +20°C° 0 mm 3 mps 749 mmHg 77%
09:00 +21°C° 0 mm 3 mps 749 mmHg 69%
10:00 +22°C° 0 mm 3 mps 749 mmHg 62%
11:00 +24°C° 0 mm 3 mps 750 mmHg 55%
12:00 +25°C° 0 mm 3 mps 750 mmHg 53%
13:00 +25°C° 0 mm 3 mps 750 mmHg 52%
14:00 +26°C° 0 mm 3 mps 750 mmHg 50%
15:00 +26°C° 0 mm 3 mps 750 mmHg 50%
16:00 +26°C° 0 mm 3 mps 750 mmHg 51%
17:00 +26°C° 0 mm 2 mps 750 mmHg 51%
18:00 +25°C° 0 mm 2 mps 750 mmHg 55%
19:00 +24°C° 0 mm 1 mps 750 mmHg 58%
20:00 +23°C° 0 mm 1 mps 750 mmHg 62%
21:00 +22°C° 0 mm 1 mps 751 mmHg 64%
22:00 +22°C° 0 mm 1 mps 751 mmHg 65%
23:00 +21°C° 0 mm 1 mps 751 mmHg 67%

Day after tomorrow, 25 July, Sunday

Time Temperature Precipitation Wind Pressure Humidity
00:00 +21°C° 0.1 mm 1 mps 751 mmHg 69%
01:00 +21°C° 0.1 mm 1 mps 751 mmHg 70%
02:00 +20°C° 0.1 mm 1 mps 751 mmHg 72%
03:00 +20°C° 0.1 mm 1 mps 751 mmHg 74%
04:00 +20°C° 0.1 mm 1 mps 752 mmHg 76%
05:00 +20°C° 0.1 mm 1 mps 752 mmHg 79%
06:00 +21°C° 0 mm 1 mps 752 mmHg 75%
07:00 +22°C° 0 mm 1 mps 752 mmHg 71%
08:00 +21°C° 0 mm 0 mps 752 mmHg 67%
09:00 +24°C° 0.1 mm 1 mps 752 mmHg 62%
10:00 +26°C° 0.1 mm 1 mps 753 mmHg 57%
11:00 +27°C° 0.1 mm 1 mps 753 mmHg 52%
12:00 +27°C° 0.1 mm 1 mps 753 mmHg 52%
13:00 +27°C° 0.1 mm 2 mps 753 mmHg 52%
14:00 +27°C° 0.1 mm 2 mps 753 mmHg 52%
15:00 +26°C° 0.2 mm 2 mps 753 mmHg 56%
16:00 +25°C° 0.2 mm 2 mps 753 mmHg 61%
17:00 +24°C° 0.2 mm 2 mps 753 mmHg 66%
18:00 +23°C° 0.1 mm 2 mps 753 mmHg 70%
19:00 +22°C° 0.1 mm 1 mps 753 mmHg 75%
20:00 +21°C° 0.1 mm 1 mps 753 mmHg 79%
21:00 +20°C° 0 mm 1 mps 754 mmHg 80%
22:00 +18°C° 0 mm 2 mps 754 mmHg 82%
23:00 +18°C° 0 mm 2 mps 754 mmHg 83%

26 July, Monday

Time Temperature Precipitation Wind Pressure Humidity
00:00 +18°C° 0 mm 1 mps 754 mmHg 84%
01:00 +18°C° 0 mm 1 mps 754 mmHg 85%
02:00 +18°C° 0 mm 1 mps 754 mmHg 86%
03:00 +18°C° 0 mm 1 mps 754 mmHg 87%
04:00 +18°C° 0 mm 1 mps 754 mmHg 88%
05:00 +17°C° 0 mm 2 mps 755 mmHg 89%
06:00 +19°C° 0 mm 2 mps 755 mmHg 81%
07:00 +21°C° 0 mm 2 mps 755 mmHg 74%
08:00 +24°C° 0 mm 2 mps 755 mmHg 67%
09:00 +25°C° 0 mm 2 mps 755 mmHg 61%
10:00 +27°C° 0 mm 3 mps 755 mmHg 55%
11:00 +28°C° 0 mm 3 mps 755 mmHg 48%
12:00 +29°C° 0 mm 3 mps 755 mmHg 47%
13:00 +29°C° 0 mm 3 mps 754 mmHg 46%
14:00 +29°C° 0 mm 3 mps 754 mmHg 46%
15:00 +28°C° 0 mm 3 mps 754 mmHg 49%
16:00 +27°C° 0 mm 2 mps 754 mmHg 53%
17:00 +26°C° 0 mm 2 mps 754 mmHg 57%
18:00 +25°C° 0 mm 2 mps 754 mmHg 61%
19:00 +24°C° 0 mm 2 mps 754 mmHg 65%
20:00 +23°C° 0 mm 2 mps 754 mmHg 69%
21:00 +21°C° 0 mm 2 mps 754 mmHg 72%
22:00 +20°C° 0 mm 3 mps 754 mmHg 74%
23:00 +19°C° 0 mm 3 mps 755 mmHg 77%

27 July, Tuesday

Time Temperature Precipitation Wind Pressure Humidity
00:00 +19°C° 0 mm 3 mps 754 mmHg 78%
01:00 +18°C° 0 mm 3 mps 754 mmHg 78%
02:00 +18°C° 0 mm 3 mps 754 mmHg 79%
03:00 +18°C° 0 mm 3 mps 754 mmHg 79%
04:00 +18°C° 0 mm 3 mps 754 mmHg 80%
05:00 +18°C° 0 mm 3 mps 754 mmHg 80%
06:00 +20°C° 0 mm 3 mps 755 mmHg 72%
07:00 +22°C° 0 mm 4 mps 755 mmHg 63%
08:00 +25°C° 0 mm 4 mps 755 mmHg 54%
09:00 +27°C° 0 mm 5 mps 754 mmHg 49%
10:00 +28°C° 0 mm 5 mps 754 mmHg 44%
11:00 +30°C° 0 mm 6 mps 754 mmHg 39%
12:00 +30°C° 0 mm 6 mps 753 mmHg 37%
13:00 +32°C° 0 mm 6 mps 753 mmHg 35%
14:00 +33°C° 0 mm 6 mps 753 mmHg 34%
15:00 +32°C° 0 mm 6 mps 753 mmHg 36%
16:00 +30°C° 0 mm 5 mps 752 mmHg 39%
17:00 +30°C° 0 mm 5 mps 752 mmHg 42%
18:00 +27°C° 0.1 mm 5 mps 752 mmHg 54%
19:00 +25°C° 0.1 mm 4 mps 752 mmHg 65%
20:00 +22°C° 0.1 mm 4 mps 752 mmHg 77%
21:00 +22°C° 0 mm 5 mps 752 mmHg 76%
22:00 +22°C° 0 mm 5 mps 752 mmHg 75%
23:00 +22°C° 0 mm 6 mps 751 mmHg 74%

28 July, Wednesday

Time Temperature Precipitation Wind Pressure Humidity
00:00 +21°C° 0.2 mm 6 mps 751 mmHg 77%
01:00 +21°C° 0.2 mm 5 mps 751 mmHg 80%
02:00 +20°C° 0.2 mm 5 mps 751 mmHg 84%
03:00 +20°C° 0.2 mm 5 mps 751 mmHg 84%
04:00 +19°C° 0.2 mm 5 mps 750 mmHg 85%
05:00 +19°C° 0.2 mm 5 mps 750 mmHg 85%
06:00 +20°C° 0 mm 6 mps 750 mmHg 78%
07:00 +21°C° 0 mm 6 mps 749 mmHg 70%
08:00 +23°C° 0 mm 7 mps 749 mmHg 63%
09:00 +24°C° 0.1 mm 7 mps 748 mmHg 59%
10:00 +27°C° 0.1 mm 7 mps 748 mmHg 55%
11:00 +29°C° 0.1 mm 7 mps 747 mmHg 51%
12:00 +30°C° 0.1 mm 7 mps 747 mmHg 49%
13:00 +32°C° 0.1 mm 7 mps 747 mmHg 48%
14:00 +33°C° 0.1 mm 7 mps 746 mmHg 47%
15:00 +33°C° 0 mm 6 mps 746 mmHg 49%
16:00 +32°C° 0 mm 6 mps 745 mmHg 51%
17:00 +32°C° 0 mm 5 mps 745 mmHg 53%
18:00 +28°C° 3.1 mm 4 mps 745 mmHg 65%
19:00 +25°C° 3.1 mm 3 mps 745 mmHg 78%
20:00 +20°C° 3.1 mm 2 mps 746 mmHg 90%
21:00 +20°C° 1.2 mm 3 mps 745 mmHg 92%
22:00 +20°C° 1.2 mm 4 mps 745 mmHg 94%
23:00 +20°C° 1.2 mm 5 mps 745 mmHg 96%
Show more

We Need Your Consent

Meteoprog and our Service Providers may store and access personal data such as cookies, device identifiers or other similar technologies on your device and process such data to personalise content and ads, as well as provide social media features and to analyse the traffic.

  • Store and/or access information on your device

    Cookies, device identifiers or other information can be stored or accessed on your device for the purposes indicated above.

  • Personalised ads and content, ad and content measurement, audience insights, and products development

    Ads and content can be personalised based on a profile. More data can be added to better personalise ads and content. Ad and content performance can be measured. Insights about the audience who saw the ads and content can be derived. Such data can be used to develop or improve user’s experience, systems and software.

By clicking ‘I Agree’ you will allow the use of indicated cookies, device identifiers, web beacons or other similar technologies. Your settings can be changed in the browser on your device.

For certain purposes, legitimate interests may be relied on, rather than consent. You can read more about this in our Privacy and Cookie Policy.